KG0HG Weather Reports


Display with metric or nautical units.
time (UTC)temp
F
wind
direction
speed
MPH
gust
MPH
rain 1hr
in
rain 24hr
in
rain mn
in
humidity
%
barometer
mb
20260831234043 95 172 0.0 0.0 0.00 0.00 0.00 46 1013.5
20260831233542 95 173 1.0 2.0 0.00 0.00 0.00 45 1013.7
20260831233038 95 177 0.0 0.0 0.00 0.00 0.00 46 1013.5
20260831232533 95 177 0.0 1.0 0.00 0.00 0.00 46 1013.7
20260831232029 96 178 0.0 0.0 0.00 0.00 0.00 46 1013.6
20260831231526 96 178 0.0 0.0 0.00 0.00 0.00 45 1013.4
20260831231021 97 179 0.0 0.0 0.00 0.00 0.00 43 1013.5
20260831230516 98 179 0.0 0.0 0.00 0.00 0.00 41 1013.7
20260831230011 98 180 0.0 0.0 0.00 0.00 0.00 41 1013.6
20260831225506 99 180 1.0 1.0 0.00 0.00 0.00 37 1013.7
20260831225006 99 200 1.0 2.0 0.00 0.00 0.00 38 1013.5
20260831224502 99 156 2.0 2.0 0.00 0.00 0.00 37 1013.5
20260831223956 100 163 1.0 2.0 0.00 0.00 0.00 36 1013.6
20260831223451 99 253 0.0 2.0 0.00 0.00 0.00 37 1013.5
20260831222948 99 195 1.0 3.0 0.00 0.00 0.00 36 1013.4
20260831222443 100 152 1.0 3.0 0.00 0.00 0.00 36 1013.5
20260831221938 100 149 2.0 3.0 0.00 0.00 0.00 35 1013.6
20260831221434 100 147 1.0 3.0 0.00 0.00 0.00 36 1013.7
20260831220929 100 171 1.0 2.0 0.00 0.00 0.00 36 1013.8
20260831220425 100 174 2.0 5.0 0.00 0.00 0.00 36 1013.7
20260831215920 99 151 0.0 2.0 0.00 0.00 0.00 39 1013.7
20260831215415 100 182 2.0 5.0 0.00 0.00 0.00 36 1013.9
20260831214911 100 1 5.0 8.0 0.00 0.00 0.00 36 1013.6
20260831214409 100 167 2.0 2.0 0.00 0.00 0.00 37 1013.8
20260831213904 99 177 2.0 2.0 0.00 0.00 0.00 37 1013.5
20260831213401 99 166 3.0 6.0 0.00 0.00 0.00 36 1013.6
20260831212855 100 158 3.0 6.0 0.00 0.00 0.00 37 1013.5
20260831212352 99 141 2.0 10.0 0.00 0.00 0.00 38 1013.7
20260831211850 100 173 4.0 6.0 0.00 0.00 0.00 37 1013.8
20260831211345 99 165 4.0 5.0 0.00 0.00 0.00 38 1013.8
20260831210845 99 159 3.0 5.0 0.00 0.00 0.00 38 1013.8
20260831210341 99 194 1.0 5.0 0.00 0.00 0.00 37 1013.4
20260831205836 99 176 4.0 9.0 0.00 0.00 0.00 38 1013.8
20260831205331 99 172 3.0 7.0 0.00 0.00 0.00 39 1013.8
20260831204826 98 171 3.0 5.0 0.00 0.00 0.00 39 1013.8
20260831204325 99 168 5.0 8.0 0.00 0.00 0.00 38 1013.7
20260831203824 98 249 3.0 5.0 0.00 0.00 0.00 40 1013.8
20260831203319 99 161 3.0 8.0 0.00 0.00 0.00 39 1013.9
20260831202817 98 174 4.0 6.0 0.00 0.00 0.00 39 1013.8
20260831202313 99 174 2.0 3.0 0.00 0.00 0.00 40 1014.0
20260831201812 98 167 2.0 5.0 0.00 0.00 0.00 41 1013.9
20260831201311 98 182 2.0 8.0 0.00 0.00 0.00 40 1014.0
20260831200807 98 172 2.0 7.0 0.00 0.00 0.00 40 1013.7
20260831200302 98 169 3.0 7.0 0.00 0.00 0.00 40 1013.8
20260831195757 98 176 3.0 8.0 0.00 0.00 0.00 40 1014.0
20260831195253 98 176 3.0 7.0 0.00 0.00 0.00 41 1013.7
20260831194742 97 188 1.0 5.0 0.00 0.00 0.00 40 1014.0
20260831194238 97 174 3.0 7.0 0.00 0.00 0.00 40 1014.1
20260831193731 97 136 3.0 7.0 0.00 0.00 0.00 41 1014.2
20260831193227 97 88 3.0 8.0 0.00 0.00 0.00 41 1014.2
20260831192722 96 195 3.0 8.0 0.00 0.00 0.00 42 1014.2
20260831192217 95 181 2.0 6.0 0.00 0.00 0.00 44 1014.2
20260831191713 94 168 2.0 3.0 0.00 0.00 0.00 46 1014.3
20260831191209 95 164 4.0 5.0 0.00 0.00 0.00 45 1014.3
20260831190704 94 157 2.0 5.0 0.00 0.00 0.00 46 1014.4
20260831190203 94 187 2.0 3.0 0.00 0.00 0.00 46 1014.4
20260831185659 94 178 3.0 3.0 0.00 0.00 0.00 44 1014.3
20260831185154 94 202 3.0 9.0 0.00 0.00 0.00 44 1014.3
20260831184653 94 181 6.0 9.0 0.00 0.00 0.00 45 1014.4
20260831184149 92 161 1.0 3.0 0.00 0.00 0.00 46 1014.3
20260831183648 92 144 1.0 3.0 0.00 0.00 0.00 46 1014.5
20260831183148 92 167 2.0 3.0 0.00 0.00 0.00 46 1014.5
20260831182647 93 175 2.0 6.0 0.00 0.00 0.00 45 1014.4
20260831182143 94 175 2.0 6.0 0.00 0.00 0.00 45 1014.6
20260831181637 93 297 4.0 6.0 0.00 0.00 0.00 45 1014.7
20260831181132 94 171 3.0 8.0 0.00 0.00 0.00 45 1014.9
20260831180627 94 235 2.0 7.0 0.00 0.00 0.00 44 1014.8
20260831180122 93 184 3.0 3.0 0.00 0.00 0.00 44 1015.0
20260831175616 94 217 3.0 9.0 0.00 0.00 0.00 43 1015.0
20260831175114 94 174 5.0 6.0 0.00 0.00 0.00 44 1014.8
20260831174613 94 234 5.0 8.0 0.00 0.00 0.00 44 1014.7
20260831174108 94 142 1.0 6.0 0.00 0.00 0.00 45 1015.0
20260831173606 93 169 6.0 8.0 0.00 0.00 0.00 45 1014.9
20260831173103 93 180 3.0 8.0 0.00 0.00 0.00 46 1014.9
20260831172557 92 175 3.0 7.0 0.00 0.00 0.00 48 1014.9
20260831172052 93 164 3.0 10.0 0.00 0.00 0.00 47 1015.2
20260831171547 93 175 1.0 7.0 0.00 0.00 0.00 47 1015.2
20260831171045 93 162 1.0 5.0 0.00 0.00 0.00 47 1015.2
20260831170540 91 236 2.0 8.0 0.00 0.00 0.00 48 1015.3
20260831170038 91 168 7.0 8.0 0.00 0.00 0.00 49 1015.4
20260831165537 91 180 4.0 6.0 0.00 0.00 0.00 50 1015.5
20260831165034 91 188 3.0 6.0 0.00 0.00 0.00 50 1015.4
20260831164530 91 167 2.0 6.0 0.00 0.00 0.00 51 1015.4
20260831164026 90 160 3.0 8.0 0.00 0.00 0.00 51 1015.4
20260831163520 89 184 6.0 8.0 0.00 0.00 0.00 50 1015.6
20260831163016 89 156 5.0 8.0 0.00 0.00 0.00 51 1015.2
20260831162515 89 211 2.0 6.0 0.00 0.00 0.00 53 1015.6
20260831162013 88 251 3.0 9.0 0.00 0.00 0.00 52 1015.5
20260831161509 88 160 4.0 9.0 0.00 0.00 0.00 52 1015.5
20260831161005 88 165 5.0 10.0 0.00 0.00 0.00 52 1015.6
20260831160504 87 179 4.0 7.0 0.00 0.00 0.00 53 1015.5
20260831155959 87 168 4.0 13.0 0.00 0.00 0.00 53 1015.4
20260831155454 87 165 2.0 2.0 0.00 0.00 0.00 54 1015.6
20260831154949 87 166 3.0 9.0 0.00 0.00 0.00 54 1015.5
20260831154446 87 170 3.0 6.0 0.00 0.00 0.00 54 1015.3
20260831153945 87 178 2.0 6.0 0.00 0.00 0.00 54 1015.5
20260831153440 86 195 1.0 5.0 0.00 0.00 0.00 55 1015.5
20260831152937 86 168 5.0 6.0 0.00 0.00 0.00 55 1015.6
20260831152432 86 169 2.0 6.0 0.00 0.00 0.00 55 1015.5
20260831151927 86 168 4.0 5.0 0.00 0.00 0.00 57 1015.4
20260831151426 86 168 3.0 5.0 0.00 0.00 0.00 56 1015.5
20260831150922 85 169 0.0 3.0 0.00 0.00 0.00 57 1015.6
20260831150417 85 170 2.0 8.0 0.00 0.00 0.00 58 1015.3
20260831145916 85 180 1.0 5.0 0.00 0.00 0.00 59 1015.5
20260831145412 84 176 2.0 5.0 0.00 0.00 0.00 60 1015.4
20260831144908 84 176 2.0 3.0 0.00 0.00 0.00 61 1015.6
20260831144404 83 176 2.0 3.0 0.00 0.00 0.00 61 1015.4
20260831143858 83 176 3.0 5.0 0.00 0.00 0.00 61 1015.5
20260831143348 83 165 2.0 5.0 0.00 0.00 0.00 61 1015.6
20260831142844 82 166 2.0 3.0 0.00 0.00 0.00 61 1015.4
20260831142338 82 166 1.0 3.0 0.00 0.00 0.00 62 1015.5
20260831141832 82 170 2.0 3.0 0.00 0.00 0.00 63 1015.5
20260831141327 81 170 1.0 5.0 0.00 0.00 0.00 63 1015.4
20260831140822 80 167 3.0 3.0 0.00 0.00 0.00 64 1015.6
20260831140316 80 169 3.0 5.0 0.00 0.00 0.00 64 1015.4
20260831135815 80 169 3.0 6.0 0.00 0.00 0.00 65 1015.5
20260831135310 79 174 4.0 6.0 0.00 0.00 0.00 65 1015.5
20260831134805 79 172 2.0 2.0 0.00 0.00 0.00 66 1015.9
20260831134302 79 173 2.0 2.0 0.00 0.00 0.00 65 1015.5
20260831133801 79 177 3.0 3.0 0.00 0.00 0.00 66 1015.6
20260831133301 78 167 0.0 5.0 0.00 0.00 0.00 66 1015.6
20260831132756 78 164 2.0 3.0 0.00 0.00 0.00 66 1015.6
20260831132250 77 164 2.0 3.0 0.00 0.00 0.00 68 1015.5
20260831131744 77 164 1.0 3.0 0.00 0.00 0.00 68 1015.5
20260831131242 77 164 1.0 2.0 0.00 0.00 0.00 68 1015.4
20260831130736 77 164 1.0 1.0 0.00 0.00 0.00 68 1015.7
20260831130231 77 164 1.0 2.0 0.00 0.00 0.00 68 1015.6
20260831125730 77 164 2.0 2.0 0.00 0.00 0.00 68 1015.5
20260831125226 77 164 1.0 2.0 0.00 0.00 0.00 68 1015.5
20260831124721 77 164 1.0 2.0 0.00 0.00 0.00 68 1015.4
20260831124217 77 164 2.0 2.0 0.00 0.00 0.00 68 1015.5
20260831123717 77 165 2.0 2.0 0.00 0.00 0.00 67 1015.1
20260831123215 76 165 2.0 2.0 0.00 0.00 0.00 68 1015.2
20260831122710 77 165 1.0 2.0 0.00 0.00 0.00 68 1015.3
20260831122206 76 165 0.0 2.0 0.00 0.00 0.00 68 1015.1
20260831121705 76 165 0.0 1.0 0.00 0.00 0.00 68 1015.1
20260831121202 76 165 0.0 2.0 0.00 0.00 0.00 68 1015.0
20260831120657 77 165 0.0 2.0 0.00 0.00 0.00 67 1014.9
20260831120151 76 165 2.0 3.0 0.00 0.00 0.00 67 1015.0
20260831115647 76 165 2.0 3.0 0.00 0.00 0.00 68 1014.8
20260831115143 76 165 0.0 0.0 0.00 0.00 0.00 68 1015.0
20260831114642 76 165 2.0 2.0 0.00 0.00 0.00 67 1014.6
20260831114136 77 165 0.0 0.0 0.00 0.00 0.00 68 1014.7
20260831113637 77 165 2.0 3.0 0.00 0.00 0.00 67 1014.8
20260831113132 77 165 0.0 1.0 0.00 0.00 0.00 67 1014.9
20260831112631 77 165 0.0 2.0 0.00 0.00 0.00 67 1014.9
20260831112126 77 165 0.0 1.0 0.00 0.00 0.00 67 1014.7
20260831111622 77 165 1.0 2.0 0.00 0.00 0.00 65 1014.7
20260831111117 77 165 0.0 2.0 0.00 0.00 0.00 66 1014.6
20260831110612 77 165 0.0 2.0 0.00 0.00 0.00 65 1014.7
20260831105601 78 165 2.0 5.0 0.00 0.00 0.00 64 1014.3
20260831105056 78 166 2.0 2.0 0.00 0.00 0.00 64 1014.4
20260831104552 78 166 2.0 3.0 0.00 0.00 0.00 64 1014.5
20260831104048 78 166 1.0 3.0 0.00 0.00 0.00 64 1014.2
20260831103543 78 166 1.0 1.0 0.00 0.00 0.00 64 1014.2
20260831103039 78 164 2.0 3.0 0.00 0.00 0.00 63 1013.8
20260831102533 78 164 2.0 5.0 0.00 0.00 0.00 63 1013.9
20260831102028 78 165 2.0 3.0 0.00 0.00 0.00 64 1013.7
20260831101523 79 165 3.0 3.0 0.00 0.00 0.00 62 1014.0
20260831101019 79 168 1.0 2.0 0.00 0.00 0.00 62 1013.8
20260831100515 78 169 1.0 3.0 0.00 0.00 0.00 63 1013.9
20260831100011 79 168 2.0 2.0 0.00 0.00 0.00 62 1013.9
20260831095509 79 168 2.0 3.0 0.00 0.00 0.00 62 1013.9
20260831095004 79 168 1.0 3.0 0.00 0.00 0.00 62 1013.9
20260831094500 79 169 3.0 3.0 0.00 0.00 0.00 62 1013.9
20260831093956 79 169 1.0 2.0 0.00 0.00 0.00 62 1013.8
20260831093450 79 169 1.0 2.0 0.00 0.00 0.00 62 1013.9
20260831092947 79 169 2.0 7.0 0.00 0.00 0.00 62 1013.8
20260831092442 79 164 2.0 5.0 0.00 0.00 0.00 61 1013.9
20260831091937 79 164 2.0 5.0 0.00 0.00 0.00 61 1013.7
20260831091432 79 164 3.0 3.0 0.00 0.00 0.00 61 1013.8
20260831090928 79 164 3.0 5.0 0.00 0.00 0.00 61 1013.6
20260831090424 80 164 2.0 3.0 0.00 0.00 0.00 60 1014.0
20260831085920 80 165 2.0 3.0 0.00 0.00 0.00 61 1013.9
20260831085415 80 165 0.0 3.0 0.00 0.00 0.00 60 1013.9
20260831084914 80 165 2.0 5.0 0.00 0.00 0.00 60 1013.8
20260831084410 80 172 3.0 6.0 0.00 0.00 0.00 59 1013.9
20260831083907 80 173 3.0 5.0 0.00 0.00 0.00 59 1014.1
20260831083402 80 167 2.0 3.0 0.00 0.00 0.00 59 1013.7
20260831082901 80 167 3.0 5.0 0.00 0.00 0.00 60 1013.9
20260831082401 80 165 3.0 5.0 0.00 0.00 0.00 59 1013.9
20260831081856 81 165 2.0 2.0 0.00 0.00 0.00 59 1013.7
20260831081351 81 164 4.0 6.0 0.00 0.00 0.00 58 1013.6
20260831080848 81 172 2.0 7.0 0.00 0.00 0.00 58 1013.6
20260831080342 81 165 4.0 5.0 0.00 0.00 0.00 57 1013.7
20260831075838 82 167 2.0 5.0 0.00 0.00 0.00 58 1013.5
20260831075333 81 170 3.0 5.0 0.00 0.00 0.00 57 1013.4
20260831074828 81 166 3.0 5.0 0.00 0.00 0.00 58 1013.5
20260831074327 81 165 3.0 8.0 0.00 0.00 0.00 58 1013.3
20260831073823 81 164 4.0 6.0 0.00 0.00 0.00 58 1013.5
20260831073321 81 167 2.0 5.0 0.00 0.00 0.00 59 1013.3
20260831072817 81 168 2.0 2.0 0.00 0.00 0.00 59 1013.4
20260831072313 81 170 2.0 6.0 0.00 0.00 0.00 59 1013.2
20260831071809 81 167 3.0 6.0 0.00 0.00 0.00 59 1013.4
20260831071308 81 168 2.0 8.0 0.00 0.00 0.00 59 1013.3
20260831070803 81 165 2.0 5.0 0.00 0.00 0.00 59 1013.2
20260831070302 81 166 2.0 2.0 0.00 0.00 0.00 59 1013.3
20260831065801 81 166 1.0 5.0 0.00 0.00 0.00 59 1013.1
20260831065259 82 166 0.0 2.0 0.00 0.00 0.00 58 1013.2
20260831064755 82 166 0.0 3.0 0.00 0.00 0.00 57 1013.4
20260831064254 82 166 3.0 5.0 0.00 0.00 0.00 56 1013.2
20260831063750 82 168 3.0 5.0 0.00 0.00 0.00 57 1013.1
20260831063245 82 167 3.0 3.0 0.00 0.00 0.00 56 1013.2
20260831062740 83 169 1.0 2.0 0.00 0.00 0.00 56 1013.1
20260831062235 83 168 2.0 3.0 0.00 0.00 0.00 55 1013.2
20260831061732 83 167 3.0 3.0 0.00 0.00 0.00 55 1012.8
20260831061223 84 167 2.0 2.0 0.00 0.00 0.00 53 1013.0
20260831060719 84 167 3.0 3.0 0.00 0.00 0.00 52 1012.9
20260831060218 84 167 2.0 6.0 0.00 0.00 0.00 52 1012.9
20260831055713 85 166 2.0 5.0 0.00 0.00 0.00 52 1013.0
20260831055208 85 166 2.0 2.0 0.00 0.00 0.00 51 1012.8
20260831054708 85 166 1.0 2.0 0.00 0.00 0.00 50 1012.9
20260831054202 86 166 1.0 3.0 0.00 0.00 0.00 49 1012.8
20260831053656 86 165 1.0 3.0 0.00 0.00 0.00 49 1012.8
20260831053154 86 164 0.0 3.0 0.00 0.00 0.00 48 1012.9
20260831052649 86 164 1.0 3.0 0.00 0.00 0.00 48 1012.9
20260831052148 87 164 1.0 2.0 0.00 0.00 0.00 48 1012.8
20260831051646 87 164 3.0 5.0 0.00 0.00 0.00 48 1012.7
20260831051145 87 168 2.0 3.0 0.00 0.00 0.00 48 1012.7
20260831050640 87 167 3.0 3.0 0.00 0.00 0.00 47 1012.4
20260831050139 87 166 3.0 6.0 0.00 0.00 0.00 47 1012.3
20260831045639 87 169 3.0 6.0 0.00 0.00 0.00 47 1012.7
20260831045134 87 167 3.0 6.0 0.00 0.00 0.00 47 1012.4
20260831044629 88 169 3.0 3.0 0.00 0.00 0.00 47 1012.4
20260831044124 88 176 4.0 5.0 0.00 0.00 0.00 47 1012.6
20260831043620 88 169 3.0 5.0 0.00 0.00 0.00 46 1012.6
20260831043114 88 167 3.0 5.0 0.00 0.00 0.00 46 1012.7
20260831042613 88 169 1.0 5.0 0.00 0.00 0.00 46 1012.6
20260831042103 88 167 3.0 5.0 0.00 0.00 0.00 46 1012.4
20260831041558 88 178 5.0 7.0 0.00 0.00 0.00 46 1012.8
20260831041057 89 166 2.0 5.0 0.00 0.00 0.00 45 1012.5
20260831040552 89 171 4.0 7.0 0.00 0.00 0.00 45 1012.7
20260831040051 89 167 3.0 5.0 0.00 0.00 0.00 45 1012.9
20260831035543 89 166 4.0 6.0 0.00 0.00 0.00 45 1012.7
20260831035039 89 162 3.0 6.0 0.00 0.00 0.00 45 1012.5
20260831034539 89 171 4.0 7.0 0.00 0.00 0.00 46 1012.6
20260831034034 89 161 3.0 6.0 0.00 0.00 0.00 46 1012.6
20260831033530 89 162 3.0 5.0 0.00 0.00 0.00 46 1012.5
20260831033025 89 164 3.0 6.0 0.00 0.00 0.00 47 1012.5
20260831032524 89 168 2.0 3.0 0.00 0.00 0.00 46 1012.7
20260831032020 89 172 3.0 9.0 0.00 0.00 0.00 47 1012.7
20260831031520 89 168 7.0 10.0 0.00 0.00 0.00 46 1012.5
20260831031019 89 176 3.0 7.0 0.00 0.00 0.00 47 1012.5
20260831030518 89 172 6.0 9.0 0.00 0.00 0.00 47 1012.6
20260831030017 89 166 3.0 5.0 0.00 0.00 0.00 47 1012.6
20260831025515 89 165 5.0 6.0 0.00 0.00 0.00 47 1012.7
20260831025011 89 169 3.0 6.0 0.00 0.00 0.00 48 1012.6
20260831024501 89 170 3.0 7.0 0.00 0.00 0.00 48 1012.6
20260831024000 89 169 4.0 7.0 0.00 0.00 0.00 48 1012.6
20260831023458 89 165 1.0 3.0 0.00 0.00 0.00 49 1012.5
20260831022953 89 166 2.0 3.0 0.00 0.00 0.00 49 1012.4
20260831022452 89 162 5.0 7.0 0.00 0.00 0.00 47 1012.2
20260831021948 89 166 3.0 7.0 0.00 0.00 0.00 48 1012.2
20260831021447 89 165 2.0 3.0 0.00 0.00 0.00 49 1012.4
20260831020943 89 165 3.0 5.0 0.00 0.00 0.00 49 1012.1
20260831020443 89 162 2.0 5.0 0.00 0.00 0.00 50 1012.3
20260831015937 89 165 1.0 3.0 0.00 0.00 0.00 51 1012.1
20260831015434 89 169 4.0 5.0 0.00 0.00 0.00 50 1011.9
20260831014928 89 165 1.0 2.0 0.00 0.00 0.00 52 1012.0
20260831014423 89 165 2.0 2.0 0.00 0.00 0.00 51 1012.1
20260831013919 89 166 1.0 2.0 0.00 0.00 0.00 51 1011.7
20260831013414 89 166 1.0 2.0 0.00 0.00 0.00 52 1011.7
20260831012908 90 166 1.0 2.0 0.00 0.00 0.00 49 1011.9
20260831012403 90 165 2.0 3.0 0.00 0.00 0.00 49 1011.5
20260831011858 90 165 2.0 2.0 0.00 0.00 0.00 49 1011.7
20260831011352 90 165 2.0 2.0 0.00 0.00 0.00 49 1011.5
20260831010843 90 165 1.0 3.0 0.00 0.00 0.00 49 1011.5
20260831010342 90 165 0.0 1.0 0.00 0.00 0.00 48 1011.5
20260831005838 90 165 1.0 1.0 0.00 0.00 0.00 49 1011.4
20260831005333 90 165 0.0 1.0 0.00 0.00 0.00 47 1011.5
20260831004828 91 164 0.0 1.0 0.00 0.00 0.00 46 1011.3
20260831004324 91 165 0.0 0.0 0.00 0.00 0.00 45 1011.6
20260831003820 93 165 0.0 2.0 0.00 0.00 0.00 44 1011.4
20260831003316 93 165 2.0 3.0 0.00 0.00 0.00 41 1011.1
20260831002815 94 165 1.0 2.0 0.00 0.00 0.00 42 1011.2
20260831002309 95 165 2.0 3.0 0.00 0.00 0.00 41 1011.1
20260831001805 95 166 0.0 3.0 0.00 0.00 0.00 41 1011.2
20260831001259 95 164 2.0 3.0 0.00 0.00 0.00 39 1010.9
20260831000757 95 164 3.0 6.0 0.00 0.00 0.00 38 1011.0
20260831000256 96 167 3.0 5.0 0.00 0.00 0.00 39 1011.0
20260830235755 96 164 3.0 5.0 0.00 0.00 0.00 38 1010.8
20260830235249 96 163 2.0 3.0 0.00 0.00 0.00 39 1011.0
20260830234739 96 165 4.0 5.0 0.00 0.00 0.00 37 1011.0